Location: Ostrava
(49.8330°N, 18.2830°E)
Time: 13:01:13
(UTC+02:00)

Daily predictions for brighter satellites

Satellite Brightness Start Highest point End
(mag) Time Altitude Azimuth Time Altitude Azimuth Time Altitude Azimuth
Cosmos 2360 Rocket 2.3 18:12:12 10° NNW 18:17:48 57° NE 18:23:22 10° SE
Cosmos 2333 Rocket 3.5 18:14:54 10° NNW 18:19:21 22° NE 18:23:47 10° E
SMAP 3.4 18:15:06 10° S 18:19:44 73° WSW 18:24:25 10° NNW
CZ-4 R/B 1.6 18:15:57 10° SSE 18:20:10 86° WSW 18:24:21 10° NNW
Abrixas rocket 3.1 18:17:56 10° SW 18:21:01 37° SSE 18:24:06 10° E
Cosmos 2082 Rocket 3.8 18:16:56 10° WSW 18:22:07 35° NW 18:27:22 10° NNE
Cosmos 2322 Rocket 2.8 18:19:32 10° NW 18:25:06 63° WSW 18:30:37 10° SSE
Centaur D AC-29 4.5 18:20:24 10° SW 18:27:55 14° SSW 18:31:53 10° S
SL-14 R/B 4.0 18:25:10 10° NNW 18:28:58 58° W 18:32:45 10° S
H-2A R/B 4.2 18:26:23 10° ESE 18:29:08 19° ENE 18:31:55 10° NNE
Cosmos 1809 Rocket 4.5 18:24:18 10° S 18:30:23 87° E 18:36:31 10° N
ATLAS 5 CENTAUR R/B 3.8 18:29:58 10° WNW 18:33:59 23° NNW 18:38:21 10° NE
YAOGAN 1 2.8 18:36:07 10° S 18:40:27 75° WSW 18:44:48 10° NNW
Meteor 1-11 4.4 18:37:47 10° NNW 18:43:37 82° W 18:49:21 10° S
Cosmos 1420 Rocket 4.2 18:38:35 10° NNW 18:43:50 53° ENE 18:49:00 10° SE
Thor Agena Rocket 4.5 18:40:13 10° NE 18:44:23 24° E 18:48:29 10° SSE
Cosmos 1626 2.1 18:40:44 10° N 18:44:30 87° E 18:48:14 10° S
Aureole 2 Rocket 4.1 18:43:51 10° N 18:46:46 21° NE 18:48:52 14° E
Cosmos 2322 3.7 18:41:42 10° NNW 18:47:29 74° ENE 18:53:11 10° SE
GP-B 3.0 18:43:44 10° N 18:48:13 78° E 18:52:38 10° S
Cosmos-2242 3.5 18:45:12 10° SSW 18:49:26 64° WNW 18:53:41 10° N
deb Kosmos-1763 4.4 18:47:48 10° SSW 18:51:38 74° WNW 18:55:30 10° NNE
FENGYUN 3A 3.7 18:47:45 10° SSE 18:53:04 64° ENE 18:58:27 10° N
Envisat 4.4 18:51:27 14° E 18:53:45 19° ENE 18:57:12 10° NNE
Cosmos 2151 2.9 18:49:45 10° N 18:54:05 84° ENE 18:58:21 10° S
Meteor 1-16 Rocket 4.3 18:50:07 10° SSW 18:55:25 77° WNW 19:00:50 10° N
Cosmos 1315 Rocket 2.8 18:52:25 10° N 18:56:26 60° ENE 19:00:29 10° SSE
FREGAT/IRIS 3.4 18:56:13 11° SE 18:58:45 31° ENE 19:01:27 10° N
Aureole 1 Rocket 3.7 18:52:58 10° SSW 18:59:14 83° WNW 19:03:57 10° NNE
SKYMED 2 3.5 18:55:43 10° NNE 19:00:05 74° ESE 19:04:25 10° S
Cosmos 1743 Rocket 4.2 19:00:46 10° NNW 19:05:05 61° W 19:09:25 10° S
BREEZE-M DEB (TANK) 2.9 19:04:56 10° SSW 19:06:41 23° SSE 19:06:53 22° SE
Cosmos 2219 Rocket 2.6 19:01:55 10° NNW 19:07:16 43° NE 19:11:23 16° ESE
Gbstr 26 Del rocket 3.5 19:02:40 10° WNW 19:07:31 88° SSW 19:12:00 18° ESE
Cosmos 2366 rocket 4.1 19:02:11 10° SSW 19:08:25 81° W 19:14:38 10° N
EO 1 Del DPAF 3.5 19:04:42 10° N 19:08:34 72° WNW 19:12:23 10° SSW
BREEZE-M DEB (TANK) 4.2 19:11:01 10° W 19:15:03 60° SSW 19:30:17 10° SE
ALOS 2.3 19:10:44 10° SSE 19:15:25 84° WSW 19:20:08 10° NNW
RESURS DK-1 3.2 19:11:56 10° NW 19:15:58 52° WSW 19:19:58 10° S
Cosmos 1842 Rocket 3.7 19:12:59 10° SSW 19:17:27 79° W 19:21:57 10° N
Cosmos 2058 3.7 19:15:02 10° NNW 19:19:09 54° W 19:23:12 10° S
Cosmos 2221 2.6 19:17:02 10° S 19:21:14 54° E 19:25:30 10° NNE
NOSS 0 Rocket 4.2 19:15:33 10° NNW 19:21:31 47° NE 19:25:12 22° ESE
Lacrosse 5 rocket 2.5 19:18:40 10° W 19:22:49 38° NNW 19:25:30 18° NE
Cosmos 2333 4.1 19:17:22 10° NNW 19:23:06 76° ENE 19:28:51 10° SE
DMSP B5D1-3 4.4 19:19:09 10° NNE 19:24:18 76° ESE 19:29:27 10° S
SPOT 3 Rocket 4.4 19:19:31 10° S 19:24:35 52° W 19:29:42 10° NNW
Cosmos 2237 4.4 19:18:59 10° NNW 19:24:44 74° WSW 19:30:25 10° SSE
SJ-6B 2.8 19:22:46 19° SE 19:25:14 52° ENE 19:28:54 10° N
Cosmos 921 Rocket 3.5 19:21:40 10° NNW 19:26:06 63° WSW 19:30:26 10° S
Cosmos 1461 4.1 19:22:40 10° WSW 19:26:35 41° NW 19:30:41 10° NNE
Resurs 01 Rocket 2.3 19:29:38 31° E 19:30:17 33° ENE 19:34:14 10° N
BREEZE-M DEB (TANK) 4.4 19:09:25 10° W 19:33:07 78° SSW 19:36:41 26° ESE
NOSS 3 (A) 4.5 19:32:02 10° SW 19:34:52 72° SE 19:35:18 59° ENE
Cosmos 468 4.4 19:31:35 10° S 19:36:45 65° ESE 19:41:57 10° NNE
Cosmos 2237 Rocket 2.7 19:32:35 10° NNW 19:38:01 42° NE 19:39:53 32° E
Cosmos 2084 3.4 19:34:23 10° NW 19:38:04 49° NE 19:38:36 45° ENE
In-Cosmos 22 Rocket 4.4 19:33:25 10° N 19:38:56 49° ENE 19:42:11 24° SE
Cosmos 2098 Rocket 3.4 19:35:09 10° S 19:39:37 63° E 19:45:22 10° NNE
Meteor 2-3 Rocket 4.5 19:35:31 10° N 19:40:38 31° ENE 19:41:14 31° ENE
USA 234 3.5 19:37:13 27° E 19:40:50 59° NNE 19:47:17 10° WNW
Cosmos 1000 Rocket 4.5 19:35:02 10° N 19:41:20 87° W 19:47:31 10° S
Resurs 1-3 4.0 19:43:52 41° ENE 19:44:03 41° ENE 19:48:11 10° N
Cosmos 1821 Rocket 3.9 19:39:20 10° S 19:45:27 70° E 19:51:42 10° NNE
HJ-1C 3.3 19:45:20 46° SSE 19:46:16 87° ENE 19:49:43 10° NNW
SL-16 R/B 3.3 19:42:27 10° NNW 19:47:12 26° NE 19:47:52 26° NE
COSMO-SKYMED 1 4.0 19:44:01 10° N 19:48:04 39° WNW 19:52:06 10° SW
USA 32 4.4 19:45:08 10° N 19:50:05 40° ENE 19:50:16 40° E
Cosmos 44 3.8 19:47:22 10° S 19:50:26 35° SSE 19:50:26 35° SSE
Cosmos 1934 Rocket 4.0 19:45:25 10° S 19:51:39 61° E 19:57:55 10° NNE
Cosmos 2239 Rocket 4.3 19:47:19 10° S 19:53:25 79° E 19:59:37 10° NNE
H-2A R/B 4.3 19:55:01 11° NE 19:55:01 11° NE 19:55:41 10° NNE
Cosmos 1726 2.9 19:50:08 10° S 19:56:47 15° NNE 19:57:31 10° NNE
Cosmos 1908 4.0 19:51:39 10° SSW 19:55:29 52° WNW 19:59:20 10° N
Abrixas rocket 2.6 19:54:10 10° W 19:56:58 57° SW 19:56:58 57° SW
Spot 2 Rocket 3.6 19:56:37 47° ESE 19:57:29 53° ENE 20:02:25 10° N
Sich 1 2.9 19:54:34 10° N 19:58:57 87° E 20:00:43 36° SSE
MOS 1-B Rocket 3.8 19:57:04 23° SSE 20:00:47 76° ENE 20:06:59 10° NNW
COSMOS 2428 3.2 19:55:21 10° NW 20:00:56 58° WSW 20:06:07 12° S
Cosmos 1110 Rocket 3.9 19:55:48 10° NNW 20:01:09 71° ENE 20:02:39 47° SE
Cosmos 1980 3.7 19:55:46 10° NNW 20:01:23 62° ENE 20:02:43 48° ESE
Cosmos 2360 Rocket 4.2 19:56:44 10° NW 20:01:28 28° WSW 20:06:12 10° SSW
GENESIS II 4.2 19:58:53 10° SW 20:02:51 78° NW 20:03:24 64° NNE
H-2A R/B 3.7 19:59:19 10° S 20:03:04 48° W 20:06:54 10° NNW
Cosmos 2333 Rocket 2.1 19:58:41 10° NNW 20:04:28 87° ENE 20:06:48 38° SSE
Cosmos 1805 Rocket 4.2 20:00:57 10° NNW 20:05:15 55° W 20:09:32 10° S
Cosmos 2123 Rocket 3.9 20:03:09 10° N 20:09:24 89° ENE 20:15:20 12° S
Cosmos 44 Rocket 3.5 20:04:58 10° SSW 20:08:43 49° SSE 20:08:43 49° SSE
Cosmos 1666 Rocket 3.7 20:09:37 10° NNW 20:13:58 69° W 20:15:22 41° SSW
Cosmos 2219 3.1 20:08:54 10° SSW 20:14:37 71° ESE 20:17:13 34° NE
Cosmos 1605 Rocket 3.8 20:13:35 10° S 20:19:37 67° E 20:25:40 10° NNE
CZ-4C R/B 2.2 20:14:26 10° SSW 20:19:03 55° SSE 20:19:03 55° SSE
ATLAS 5 CENTAUR R/B 3.9 20:16:27 10° NW 20:20:32 21° N 20:21:53 19° NNE
CZ-2D R/B 3.7 20:20:56 61° W 20:20:56 61° W 20:24:37 10° NNW
Cosmos 1939 Rocket 4.5 20:23:34 27° N 20:23:34 27° N 20:25:33 10° N
Aureole 2 Rocket 3.6 20:18:21 10° NW 20:22:01 46° WSW 20:22:20 45° WSW
Cosmos 1633 Rocket 3.3 20:18:09 10° NNW 20:22:33 68° W 20:23:09 59° SW
Geosat 4.3 20:23:26 51° NNE 20:23:26 51° NNE 20:27:53 10° NNW
Thor Agena Rocket 4.2 20:19:00 10° N 20:24:00 53° WNW 20:28:55 10° SW
Cosmos 1048 Rocket 4.1 20:19:11 10° SSW 20:24:18 73° WNW 20:29:27 10° NNE
SL-8 R/B 4.0 20:20:03 10° WSW 20:24:09 55° SSW 20:24:09 55° SSW
BREEZE-M DEB (TANK) 3.2 20:18:48 10° W 20:26:22 53° SSW 20:26:22 53° SSW
Cosmos 967 Rocket 4.4 20:22:38 10° NW 20:29:07 74° NE 20:29:58 65° E
Envisat 3.0 20:31:40 70° SSW 20:32:11 80° WSW 20:37:19 10° NNW
USA 267 3.3 20:47:00 57° S 20:47:00 57° S 20:52:38 10° SW
Cosmos 1447 Rocket 4.5 20:42:46 10° N 20:49:10 83° W 20:49:59 69° S
Cosmos 2219 Rocket 3.4 20:46:03 10° NW 20:51:11 38° WSW 20:53:09 29° SSW
Lacrosse 5 rocket 3.5 20:58:59 10° WNW 21:01:11 23° NW 21:01:11 23° NW
Resurs 01 Rocket 3.3 21:07:14 31° W 21:07:14 31° W 21:10:44 10° NNW
Cosmos 2237 Rocket 3.3 21:16:47 10° NW 21:21:44 40° W 21:21:44 40° W
USA 234 3.5 21:24:35 65° W 21:24:35 65° W 21:30:23 10° WNW
SL-16 R/B 3.4 21:26:13 10° NNW 21:29:45 39° NW 21:29:45 39° NW
H-2A R/B 4.2 21:35:39 20° N 21:35:39 20° N 21:37:18 10° N
Cosmos 2333 Rocket 4.4 21:44:17 10° WNW 21:47:58 18° W 21:48:50 17° WSW
ATLAS 5 CENTAUR R/B 4.3 22:01:19 10° NW 22:03:24 22° NNW 22:03:24 22° NNW
